�N����,����,�~����,�C��,���x,�C��,����,���ϕ���,�ő�u�ԕ���,�ő厞����,���˗�,�I�_���x,�n�����x,�ő啗���N��,DTYPE
"20/04/15","00:10",0.0,4.4,86.8,1009.5,303.2,1.1,1.6,323.8,0.00,2.4,11.3,"00:08:50",1
"20/04/15","00:20",0.0,4.4,87.0,1009.5,291.7,1.3,1.7,293.5,0.00,2.5,11.3,"00:17:08",1
"20/04/15","00:30",0.0,4.3,87.4,1009.3,307.1,1.5,2.1,304.6,0.00,2.4,11.3,"00:27:56",1
"20/04/15","00:40",0.0,4.2,87.7,1009.3,305.4,1.7,2.1,314.0,0.00,2.4,11.1,"00:39:48",1
"20/04/15","00:50",0.0,4.2,88.1,1009.5,302.8,1.6,2.7,326.1,0.00,2.4,11.1,"00:48:44",1
"20/04/15","01:00",0.0,4.4,88.4,1009.3,323.6,1.8,3.1,329.4,0.00,2.7,11.0,"00:54:24",1
"20/04/15","01:10",0.0,4.2,88.6,1009.0,303.9,1.5,2.5,323.1,0.00,2.5,10.9,"01:09:56",1
"20/04/15","01:20",0.0,4.0,89.0,1009.3,321.1,1.8,2.7,339.1,0.00,2.4,10.9,"01:17:56",1
"20/04/15","01:30",0.0,3.9,89.3,1009.3,307.3,1.7,2.5,331.9,0.00,2.3,10.9,"01:20:08",1
"20/04/15","01:40",0.0,4.1,89.7,1009.5,318.3,2.1,2.8,299.9,0.00,2.6,10.7,"01:33:36",1
"20/04/15","01:50",0.0,4.4,89.8,1009.5,317.1,2.7,4.3,326.6,0.00,2.9,10.7,"01:48:24",1
"20/04/15","02:00",0.0,4.4,89.7,1009.0,287.0,2.3,4.1,314.2,0.00,2.9,10.8,"01:51:04",1
"20/04/15","02:10",0.0,4.1,89.9,1009.5,295.0,2.0,3.4,323.9,0.00,2.6,10.7,"02:03:52",1
"20/04/15","02:20",0.0,4.1,90.0,1009.3,315.2,1.8,2.9,320.0,0.00,2.6,10.6,"02:14:40",1
"20/04/15","02:30",0.0,3.8,90.0,1009.3,319.7,1.8,3.1,321.3,0.00,2.4,10.6,"02:23:28",1
"20/04/15","02:40",0.0,3.6,90.1,1009.3,300.0,1.5,2.2,304.7,0.00,2.2,10.5,"02:34:56",1
"20/04/15","02:50",0.0,3.3,90.3,1009.0,314.9,2.0,2.6,320.3,0.00,1.9,10.2,"02:46:50",1
"20/04/15","03:00",0.0,3.2,90.6,1009.3,294.6,1.6,2.1,309.7,0.00,1.9,10.4,"02:59:20",1
"20/04/15","03:10",0.0,3.3,90.7,1009.3,290.7,1.7,2.5,313.0,0.00,2.0,10.3,"03:04:00",1
"20/04/15","03:20",0.0,3.3,90.8,1009.0,297.5,1.8,3.1,314.6,0.00,2.0,10.5,"03:17:04",1
"20/04/15","03:30",0.0,3.3,91.0,1009.5,286.4,1.8,2.8,312.2,0.00,2.0,10.2,"03:28:00",1
"20/04/15","03:40",0.0,3.4,91.1,1009.5,286.7,1.7,2.7,309.4,0.00,2.1,10.2,"03:36:40",1
"20/04/15","03:50",0.0,3.3,91.2,1009.3,289.5,1.6,3.2,321.0,0.00,2.0,10.1,"03:41:36",1
"20/04/15","04:00",0.0,3.3,91.3,1009.3,300.9,1.6,2.5,314.9,0.00,2.1,10.2,"03:53:20",1
"20/04/15","04:10",0.0,3.2,91.4,1009.0,288.4,1.6,3.1,319.4,0.00,2.0,10.3,"04:00:02",1
"20/04/15","04:20",0.0,3.3,91.5,1009.3,316.4,2.1,2.8,324.0,0.00,2.1,10.2,"04:17:52",1
"20/04/15","04:30",0.0,3.0,91.5,1009.3,301.4,1.2,2.2,324.5,0.00,1.8,9.9,"04:21:12",1
"20/04/15","04:40",0.0,3.0,91.7,1009.5,286.0,1.7,2.1,297.7,0.00,1.8,10.0,"04:37:52",1
"20/04/15","04:50",0.0,2.9,91.8,1009.3,318.5,2.0,2.8,324.8,0.00,1.7,10.0,"04:46:32",1
"20/04/15","05:00",0.0,2.8,91.9,1009.0,310.2,2.0,2.7,320.5,0.00,1.7,9.7,"04:58:24",1
"20/04/15","05:10",0.0,2.7,92.0,1009.0,297.0,1.5,2.4,312.1,0.00,1.6,9.9,"05:00:02",1
"20/04/15","05:20",0.0,2.6,92.2,1009.0,286.6,1.1,2.0,317.7,0.00,1.5,9.9,"05:11:44",1
"20/04/15","05:30",0.0,2.5,92.3,1009.0,288.1,1.5,2.2,305.7,0.00,1.4,9.8,"05:27:36",1
"20/04/15","05:40",0.0,3.0,92.5,1009.3,290.3,2.1,3.5,320.0,0.00,1.9,9.8,"05:38:08",1
"20/04/15","05:50",0.0,3.3,92.5,1009.3,292.4,2.1,2.9,311.1,0.00,2.2,9.9,"05:43:04",1
"20/04/15","06:00",0.0,3.7,92.5,1009.3,310.0,2.2,3.9,324.0,0.01,2.6,9.8,"05:56:24",1
"20/04/15","06:10",0.0,4.2,92.4,1009.5,319.3,1.5,2.4,323.3,0.02,3.1,9.7,"06:04:00",1
"20/04/15","06:20",0.0,4.4,92.3,1009.7,292.5,1.3,2.8,315.9,0.03,3.3,9.8,"06:10:40",1
"20/04/15","06:30",0.0,4.7,92.2,1009.7,291.2,1.1,1.4,309.0,0.03,3.6,9.7,"06:21:36",1
"20/04/15","06:40",0.0,5.2,92.3,1010.2,256.4,0.6,1.6,303.0,0.05,4.1,9.7,"06:30:08",1
"20/04/15","06:50",0.0,6.3,92.1,1010.4,292.8,1.1,2.4,321.9,0.08,5.2,9.7,"06:48:08",1
"20/04/15","07:00",0.0,6.7,91.4,1010.2,316.6,2.0,2.6,312.3,0.07,5.4,10.0,"06:51:20",1
"20/04/15","07:10",0.0,7.1,91.2,1010.7,302.2,1.2,2.4,324.2,0.10,5.8,9.9,"07:03:12",1
"20/04/15","07:20",0.0,7.8,90.4,1010.9,228.4,0.5,0.8,194.4,0.14,6.4,9.9,"07:15:12",1
"20/04/15","07:30",0.0,8.3,88.9,1011.6,142.5,0.5,1.0,104.5,0.14,6.6,10.0,"07:20:40",1
"20/04/15","07:40",0.0,9.1,87.2,1011.4,255.1,0.5,1.0,307.6,0.19,7.1,10.2,"07:34:40",1
"20/04/15","07:50",0.0,9.8,83.9,1011.6,267.4,0.6,1.1,302.9,0.22,7.3,10.2,"07:42:08",1
"20/04/15","08:00",0.0,11.0,80.2,1011.6,294.5,0.6,1.1,310.8,0.25,7.8,10.5,"07:56:32",1
"20/04/15","08:10",0.0,11.3,75.6,1011.9,260.0,0.7,1.7,248.8,0.26,7.2,10.5,"08:03:20",1
"20/04/15","08:20",0.0,11.9,71.2,1011.6,164.6,0.5,1.1,245.5,0.29,6.9,10.7,"08:10:40",1
"20/04/15","08:30",0.0,12.3,65.9,1011.9,96.3,0.7,1.9,124.8,0.32,6.2,10.9,"08:27:04",1
"20/04/15","08:40",0.0,12.9,63.1,1011.2,327.3,0.5,1.0,206.5,0.35,6.1,11.1,"08:30:48",1
"20/04/15","08:50",0.0,13.2,60.6,1011.2,133.6,0.7,1.8,117.7,0.37,5.8,11.2,"08:46:56",1
"20/04/15","09:00",0.0,13.3,59.2,1011.4,139.5,0.8,2.2,196.5,0.36,5.6,11.3,"08:57:44",1
"20/04/15","09:10",0.0,13.9,58.0,1011.6,210.8,0.7,1.6,122.5,0.41,5.8,11.7,"09:03:12",1
"20/04/15","09:20",0.0,14.2,55.7,1010.9,161.7,1.1,2.2,139.8,0.43,5.5,11.9,"09:14:00",1
"20/04/15","09:30",0.0,14.9,53.2,1010.9,189.5,1.1,2.4,110.1,0.45,5.5,12.0,"09:27:04",1
"20/04/15","09:40",0.0,14.8,51.0,1010.9,128.2,1.1,2.6,104.7,0.48,4.8,12.0,"09:30:32",1
"20/04/15","09:50",0.0,15.1,48.0,1010.7,142.2,1.1,2.7,107.8,0.48,4.2,12.3,"09:43:28",1
"20/04/15","10:00",0.0,15.6,46.8,1010.4,173.7,1.0,2.1,101.5,0.48,4.3,12.5,"09:56:40",1
"20/04/15","10:10",0.0,16.1,49.2,1010.9,185.2,1.1,2.0,116.9,0.49,5.5,12.6,"10:05:28",1
"20/04/15","10:20",0.0,16.7,49.7,1010.7,187.4,1.2,2.9,130.4,0.53,6.2,13.1,"10:17:52",1
"20/04/15","10:30",0.0,16.6,48.8,1010.4,130.6,1.5,3.4,119.0,0.53,5.8,13.2,"10:26:48",1
"20/04/15","10:40",0.0,16.4,50.0,1010.0,163.8,1.7,3.9,133.0,0.40,6.0,13.4,"10:38:24",1
"20/04/15","10:50",0.0,16.5,50.4,1010.0,165.7,1.5,3.1,190.4,0.37,6.2,13.7,"10:44:00",1
"20/04/15","11:00",0.0,17.2,49.4,1010.0,165.6,1.1,2.4,168.4,0.50,6.6,13.7,"10:52:00",1
"20/04/15","11:10",0.0,17.8,47.7,1009.3,175.5,1.5,3.4,132.0,0.54,6.6,14.0,"11:07:20",1
"20/04/15","11:20",0.0,17.4,48.5,1009.3,154.9,1.3,2.9,197.8,0.29,6.5,14.0,"11:10:16",1
"20/04/15","11:30",0.0,17.4,49.0,1009.7,138.2,1.0,2.4,136.9,0.29,6.6,14.2,"11:23:52",1
"20/04/15","11:40",0.0,18.1,45.3,1009.0,131.2,1.5,3.3,126.5,0.56,6.1,14.6,"11:32:00",1
"20/04/15","11:50",0.0,19.1,45.1,1009.0,194.2,1.6,3.7,203.5,0.66,7.0,14.6,"11:46:00",1
"20/04/15","12:00",0.0,19.0,44.7,1008.8,157.2,1.5,3.6,145.9,0.43,6.8,14.5,"11:58:32",1
"20/04/15","12:10",0.0,18.6,43.3,1009.0,117.5,2.1,4.7,118.7,0.59,5.9,14.9,"12:03:04",1
"20/04/15","12:20",0.0,19.5,43.7,1008.3,107.0,1.6,3.6,162.8,0.61,6.9,15.2,"12:18:16",1
"20/04/15","12:30",0.0,19.7,40.7,1008.1,137.8,2.1,4.4,101.8,0.60,6.0,15.2,"12:25:36",1
"20/04/15","12:40",0.0,19.7,41.6,1008.3,104.6,2.5,4.9,115.3,0.61,6.3,15.5,"12:32:00",1
"20/04/15","12:50",0.0,20.5,40.1,1007.6,114.7,1.2,3.5,114.4,0.57,6.5,15.5,"12:40:24",1
"20/04/15","13:00",0.0,21.3,39.9,1007.6,183.7,1.2,3.5,116.6,0.54,7.2,15.5,"12:58:32",1
"20/04/15","13:10",0.0,20.2,36.8,1007.4,162.8,3.5,6.8,222.8,0.45,5.0,15.9,"13:01:12",1
"20/04/15","13:20",0.0,20.3,36.6,1007.6,170.4,3.4,6.3,148.1,0.47,5.0,16.0,"13:14:24",1
"20/04/15","13:30",0.0,20.4,34.4,1007.4,176.1,3.1,4.8,195.8,0.46,4.2,16.0,"13:23:20",1
"20/04/15","13:40",0.0,20.2,34.8,1007.4,167.1,3.6,5.5,146.5,0.41,4.2,16.2,"13:35:04",1
"20/04/15","13:50",0.0,20.5,36.3,1007.1,180.0,2.6,4.5,181.6,0.40,5.1,16.3,"13:43:12",1
"20/04/15","14:00",0.0,20.1,35.4,1006.7,163.7,3.5,6.0,151.9,0.34,4.4,16.2,"13:52:16",1
"20/04/15","14:10",0.0,20.4,37.2,1006.9,184.1,3.0,6.4,197.5,0.34,5.4,16.2,"14:07:20",1
"20/04/15","14:20",0.0,20.1,37.2,1006.7,191.2,3.5,5.4,219.1,0.30,5.1,16.1,"14:13:12",1
"20/04/15","14:30",0.0,20.1,36.3,1006.7,194.1,3.1,5.5,149.9,0.28,4.7,16.0,"14:25:20",1
"20/04/15","14:40",0.0,20.2,37.1,1006.7,203.9,2.5,5.9,192.5,0.26,5.1,16.2,"14:34:24",1
"20/04/15","14:50",0.0,20.3,36.3,1006.7,199.1,2.3,4.5,197.6,0.26,4.9,16.2,"14:46:08",1
"20/04/15","15:00",0.0,20.3,36.0,1006.4,199.3,2.5,4.1,216.1,0.25,4.8,15.9,"14:52:40",1
"20/04/15","15:10",0.0,20.3,36.8,1006.4,217.6,1.6,3.1,215.8,0.20,5.1,16.0,"15:04:08",1
"20/04/15","15:20",0.0,20.1,35.5,1006.4,234.4,2.0,4.5,201.1,0.21,4.4,16.0,"15:18:56",1
"20/04/15","15:30",0.0,20.3,35.7,1006.7,240.4,1.7,3.6,185.0,0.23,4.7,15.9,"15:22:40",1
"20/04/15","15:40",0.0,20.7,37.5,1006.4,235.3,1.0,2.5,239.1,0.22,5.7,15.9,"15:34:16",1
"20/04/15","15:50",0.0,20.4,36.0,1006.4,227.5,1.7,3.3,231.4,0.19,4.9,16.0,"15:46:40",1
"20/04/15","16:00",0.0,20.1,37.0,1006.4,237.6,1.5,3.2,197.9,0.17,5.0,15.9,"15:54:40",1
"20/04/15","16:10",0.0,20.1,37.1,1006.7,245.5,1.5,3.3,232.0,0.14,5.0,15.7,"16:05:44",1
"20/04/15","16:20",0.0,20.2,35.9,1006.9,272.4,1.5,4.0,336.3,0.14,4.7,15.7,"16:18:40",1
"20/04/15","16:30",0.0,19.8,35.6,1006.4,242.7,2.0,4.5,232.6,0.14,4.2,15.8,"16:21:44",1
"20/04/15","16:40",0.0,19.5,37.0,1006.7,190.0,1.7,4.0,232.0,0.11,4.5,15.8,"16:39:52",1
"20/04/15","16:50",0.0,19.5,37.4,1006.9,226.0,1.6,4.1,141.2,0.10,4.6,15.8,"16:47:44",1
"20/04/15","17:00",0.0,19.1,38.4,1006.9,217.0,2.2,4.7,198.8,0.07,4.7,15.7,"16:57:12",1
"20/04/15","17:10",0.0,18.8,39.1,1006.9,229.3,1.3,2.5,173.0,0.04,4.6,15.7,"17:03:04",1
"20/04/15","17:20",0.0,18.6,39.4,1006.9,266.4,1.2,2.2,304.8,0.03,4.6,15.6,"17:12:32",1
"20/04/15","17:30",0.0,18.7,39.4,1006.7,287.1,0.8,1.8,248.9,0.03,4.7,15.4,"17:21:20",1
"20/04/15","17:40",0.0,18.4,46.2,1006.9,336.5,1.1,2.0,337.2,0.02,6.7,15.5,"17:34:32",1
"20/04/15","17:50",0.0,17.7,49.2,1006.9,339.4,1.2,2.0,343.1,0.01,7.0,15.3,"17:48:00",1
"20/04/15","18:00",0.0,16.9,51.0,1006.9,330.1,1.0,1.8,338.1,0.00,6.7,15.2,"17:50:16",1
"20/04/15","18:10",0.0,16.3,52.8,1007.6,295.2,1.0,1.4,269.8,0.00,6.7,15.3,"18:08:32",1
"20/04/15","18:20",0.0,15.7,55.9,1007.4,322.7,1.6,2.2,336.6,0.00,7.0,15.0,"18:16:56",1
"20/04/15","18:30",0.0,15.1,57.4,1007.4,326.2,1.2,3.1,328.8,0.00,6.8,14.9,"18:20:24",1
"20/04/15","18:40",0.0,14.7,59.3,1007.6,289.7,1.3,2.7,323.5,0.00,6.9,15.0,"18:31:28",1
"20/04/15","18:50",0.0,14.4,60.4,1007.8,278.6,1.5,2.4,308.9,0.00,6.9,14.8,"18:41:44",1
"20/04/15","19:00",0.0,14.2,61.0,1007.8,305.4,1.6,2.8,352.6,0.00,6.8,14.8,"18:58:16",1
"20/04/15","19:10",0.0,14.1,61.5,1008.1,300.7,1.7,2.2,324.5,0.00,6.9,14.6,"19:00:08",1
"20/04/15","19:20",0.0,13.9,61.8,1008.6,305.0,1.7,3.1,324.8,0.00,6.7,14.5,"19:17:28",1
"20/04/15","19:30",0.0,13.8,62.4,1008.6,320.7,1.8,2.7,334.8,0.00,6.8,14.7,"19:28:00",1
"20/04/15","19:40",0.0,13.5,64.2,1008.6,327.6,1.5,2.6,323.8,0.00,6.9,14.4,"19:33:44",1
"20/04/15","19:50",0.0,13.3,65.6,1009.0,323.4,1.6,3.2,335.7,0.00,7.0,14.4,"19:47:04",1
"20/04/15","20:00",0.0,12.9,66.9,1008.8,338.5,1.2,1.7,344.2,0.00,6.9,14.5,"19:51:04",1
"20/04/15","20:10",0.0,12.7,67.1,1008.6,294.8,1.3,2.4,327.7,0.00,6.8,14.1,"20:09:46",1
"20/04/15","20:20",0.0,12.8,66.4,1009.3,303.7,1.7,2.7,334.0,0.00,6.7,14.0,"20:19:38",1
"20/04/15","20:30",0.0,12.9,65.6,1009.7,320.6,2.1,2.8,330.3,0.00,6.7,14.0,"20:27:44",1
"20/04/15","20:40",0.0,12.8,65.7,1009.5,329.9,2.0,2.6,311.5,0.00,6.6,14.0,"20:30:32",1
"20/04/15","20:50",0.0,12.6,66.2,1009.5,324.1,2.1,3.3,340.5,0.00,6.5,14.0,"20:49:44",1
"20/04/15","21:00",0.0,12.4,66.4,1009.3,316.5,1.8,2.7,319.8,0.00,6.4,13.5,"20:51:54",1
"20/04/15","21:10",0.0,12.0,66.9,1009.3,296.2,1.2,1.6,321.1,0.00,6.1,13.9,"21:03:06",1
"20/04/15","21:20",0.0,11.6,68.1,1009.5,312.2,1.5,2.0,327.9,0.00,6.0,13.6,"21:13:02",1
"20/04/15","21:30",0.0,11.5,69.4,1009.3,331.4,1.5,2.1,348.6,0.00,6.1,13.6,"21:27:54",1
"20/04/15","21:40",0.0,11.3,70.7,1009.3,327.2,1.8,2.5,317.8,0.00,6.2,13.6,"21:30:40",1
"20/04/15","21:50",0.0,10.7,71.6,1009.3,285.4,1.2,1.8,294.2,0.00,5.8,13.6,"21:41:44",1
"20/04/15","22:00",0.0,10.7,72.6,1009.0,292.1,1.6,2.1,305.7,0.00,6.0,13.3,"21:59:36",1
"20/04/15","22:10",0.0,10.7,73.1,1009.3,332.6,2.0,2.8,336.3,0.00,6.1,13.3,"22:04:40",1
"20/04/15","22:20",0.0,10.2,74.3,1009.0,285.0,1.5,2.1,307.2,0.00,5.9,13.2,"22:11:28",1
"20/04/15","22:30",0.0,10.1,75.1,1009.5,295.7,1.5,1.9,315.0,0.00,5.9,13.1,"22:24:48",1
"20/04/15","22:40",0.0,10.1,75.5,1009.5,287.9,1.6,2.2,303.5,0.00,6.0,13.2,"22:36:56",1
"20/04/15","22:50",0.0,10.0,76.0,1009.5,325.6,1.6,2.2,336.2,0.00,6.0,13.1,"22:48:56",1
"20/04/15","23:00",0.0,9.6,76.7,1009.3,309.0,1.7,2.4,319.8,0.00,5.8,13.0,"22:50:32",1
"20/04/15","23:10",0.0,9.4,77.6,1009.0,295.9,1.6,2.1,268.5,0.00,5.7,13.0,"23:09:52",1
"20/04/15","23:20",0.0,9.4,78.3,1009.0,310.6,1.6,2.4,313.2,0.00,5.9,12.9,"23:17:36",1
"20/04/15","23:30",0.0,9.2,78.6,1009.0,308.1,1.6,2.2,320.4,0.00,5.7,12.8,"23:24:48",1
"20/04/15","23:40",0.0,9.2,79.0,1009.0,305.6,1.6,2.5,314.7,0.00,5.8,12.7,"23:37:52",1
"20/04/15","23:50",0.0,9.2,79.4,1009.3,312.9,1.5,2.8,323.6,0.00,5.9,12.8,"23:40:02",1
"20/04/15","24:00",0.0,9.1,79.6,1009.0,318.4,2.1,2.8,321.1,0.00,5.8,12.9,"23:56:16",1
